Weather History for LTAI - September, 2013

Change the Weather History Date:

Friday, September 13, 2013

  Actual Average Record
Temperature  
Mean Temperature 84 °F -  
Max Temperature 97 °F 84 °F 97 °F (2013)
Min Temperature 70 °F 63 °F 60 °F (2004)
Cooling Degree Days 18    
Growing Degree Days 34 (Base 50)    
Moisture  
Dew Point 60 °F    
Average Humidity 48    
Maximum Humidity 78    
Minimum Humidity 17    
Precipitation  
Precipitation 0.00 in 0.05 in - ()
Sea Level Pressure  
Sea Level Pressure 29.87 in    
Wind  
Wind Speed 4 mph ()    
Max Wind Speed 10 mph    
Max Gust Speed -    
Visibility 6.0 miles    
Events      
Averages and records for this station are not official NWS values.
T = Trace of Precipitation, MM = Missing Value Source: Averaged Metar Reports

Daily Weather History Graph

Daily Weather History Graph

Search for Another Location

Airport or City:

Trip Planner

Search our weather history database for the weather conditions in past years. The results will help you decide how hot, cold, wet, or windy it might be!

Date:

Astronomy

Sep. 13, 2013 Rise Set
Actual Time 6:37 AM EEST 7:07 PM EEST
Civil Twilight 6:11 AM EEST 7:33 PM EEST
Nautical Twilight 5:40 AM EEST 8:04 PM EEST
Astronomical Twilight 5:09 AM EEST 8:35 PM EEST
Moon 2:32 PM EEST (9/13) No Moon Set
Length of Visible Light 13h 22m
Length of Day
12h 30m
First Quarter, 58% of the Moon is Illuminated
Sep 13
First Quarter
Sep 19
Full
Sep 27
Last Quarter
Oct 5
New
Oct 12
First Quarter

Hourly Weather History & Observations

Time (EEST) Temp. Heat Index Dew Point Humidity Pressure Visibility Wind Dir Wind Speed Gust Speed Precip Events Conditions
12:20 AM 77.0 °F - 60.8 °F 57% 29.86 in - Variable 2.3 mph - N/A   Clear
12:50 AM 75.2 °F - 62.6 °F 65% 29.86 in - Variable 2.3 mph - N/A   Clear
1:20 AM 78.8 °F - 62.6 °F 57% 29.86 in - Variable 1.2 mph - N/A   Clear
1:50 AM 75.2 °F - 60.8 °F 61% 29.86 in - Variable 1.2 mph - N/A   Clear
2:20 AM 73.4 °F - 62.6 °F 69% 29.86 in - Variable 2.3 mph - N/A   Clear
2:50 AM 73.4 °F - 60.8 °F 65% 29.86 in - North 4.6 mph - N/A   Clear
3:00 AM 74 °F - 61 °F 55% 29.85 in 6 mi North 4.6 mph - -  
3:20 AM 73.4 °F - 60.8 °F 65% 29.86 in - Calm Calm - N/A   Clear
3:50 AM 73.4 °F - 57.2 °F 57% 29.86 in - North 3.5 mph - N/A   Clear
4:20 AM 75.2 °F - 57.2 °F 53% 29.86 in - NE 3.5 mph - N/A   Clear
4:50 AM 71.6 °F - 59.0 °F 64% 29.86 in - NE 1.2 mph - N/A   Clear
5:20 AM 73.4 °F - 55.4 °F 53% 29.86 in - North 4.6 mph - N/A   Clear
5:50 AM 78.8 °F - 51.8 °F 39% 29.86 in - North 5.8 mph - N/A   Clear
6:20 AM 77.0 °F - 51.8 °F 41% 29.86 in - North 6.9 mph - N/A   Clear
6:50 AM 77.0 °F - 51.8 °F 41% 29.86 in - Variable 1.2 mph - N/A   Clear
7:20 AM 77.0 °F - 51.8 °F 41% 29.89 in - Variable 1.2 mph - N/A   Clear
7:50 AM 78.8 °F - 55.4 °F 44% 29.89 in - Variable 2.3 mph - N/A   Clear
8:20 AM 84.2 °F - 50.0 °F 30% 29.89 in - Variable 3.5 mph - N/A   Clear
8:50 AM 87.8 °F - 50.0 °F 27% 29.89 in - Variable 3.5 mph - N/A   Clear
9:00 AM 87 °F - 49 °F 17% 29.88 in 6 mi West 3.5 mph - -  
9:20 AM 89.6 °F 87.3 °F 53.6 °F 29% 29.89 in - Variable 2.3 mph - N/A   Clear
9:50 AM 93.2 °F - 50.0 °F 23% 29.89 in - Variable 1.2 mph - N/A   Clear
10:20 AM 95.0 °F - 48.2 °F 20% 29.89 in - NNE 3.5 mph - N/A   Clear
10:50 AM 95.0 °F 96.0 °F 62.6 °F 34% 29.89 in - Variable 3.5 mph - N/A   Clear
11:20 AM 95.0 °F 94.4 °F 59.0 °F 30% 29.89 in - SSE 4.6 mph - N/A   Clear
11:50 AM 95.0 °F 92.7 °F 53.6 °F 25% 29.89 in - South 8.1 mph - N/A   Clear
12:20 PM 93.2 °F 94.9 °F 64.4 °F 38% 29.89 in - South 9.2 mph - N/A   Clear
12:50 PM 93.2 °F 94.9 °F 64.4 °F 38% 29.89 in - South 8.1 mph - N/A   Clear
1:20 PM 93.2 °F 92.6 °F 59.0 °F 32% 29.89 in - South 9.2 mph - N/A   Clear
1:50 PM 91.4 °F 92.1 °F 62.6 °F 38% 29.89 in - SSE 9.2 mph - N/A   Clear
2:20 PM 91.4 °F 91.4 °F 60.8 °F 36% 29.86 in - South 10.4 mph - N/A   Clear
2:50 PM 91.4 °F 91.4 °F 60.8 °F 36% 29.86 in - South 10.4 mph - N/A   Clear
3:00 PM 91 °F - 60 °F 26% 29.86 in 6 mi South 10.4 mph - -  
3:20 PM 91.4 °F 90.7 °F 59.0 °F 34% 29.86 in - South 9.2 mph - N/A   Clear
3:50 PM 91.4 °F 90.7 °F 59.0 °F 34% 29.86 in - SSE 8.1 mph - N/A   Clear
4:20 PM 91.4 °F 90.7 °F 59.0 °F 34% 29.86 in - SSE 9.2 mph - N/A   Clear
4:50 PM 89.6 °F 93.4 °F 68.0 °F 49% 29.86 in - South 8.1 mph - N/A   Clear
5:20 PM 87.8 °F 87.6 °F 60.8 °F 40% 29.86 in - SSE 5.8 mph - N/A   Clear
5:50 PM 87.8 °F 90.4 °F 66.2 °F 49% 29.86 in - SE 4.6 mph - N/A   Clear
6:20 PM 86.0 °F 89.4 °F 68.0 °F 55% 29.86 in - East 3.5 mph - N/A   Clear
6:50 PM 84.2 °F 87.3 °F 68.0 °F 58% 29.86 in - East 3.5 mph - N/A   Clear
7:20 PM 82.4 °F 86.3 °F 69.8 °F 66% 29.86 in - ENE 4.6 mph - N/A   Clear
7:50 PM 80.6 °F 83.2 °F 68.0 °F 65% 29.86 in - East 3.5 mph - N/A   Clear
8:20 PM 80.6 °F 83.2 °F 68.0 °F 65% 29.89 in - ESE 2.3 mph - N/A   Clear
8:50 PM 77.0 °F - 69.8 °F 78% 29.89 in - East 1.2 mph - N/A   Clear
9:00 PM 78 °F - 69 °F 67% 29.88 in 6 mi East 1.2 mph - -  
9:20 PM 77.0 °F - 69.8 °F 78% 29.89 in - Variable 3.5 mph - N/A   Clear
9:50 PM 77.0 °F - 68.0 °F 74% 29.89 in - Variable 2.3 mph - N/A   Clear
10:20 PM 78.8 °F - 64.4 °F 61% 29.89 in - Variable 3.5 mph - N/A   Clear
10:50 PM 78.8 °F - 62.6 °F 57% 29.89 in - NNW 2.3 mph - N/A   Clear
11:20 PM 78.8 °F - 60.8 °F 54% 29.89 in - NNW 3.5 mph - N/A   Clear
11:50 PM 77.0 °F - 59.0 °F 54% 29.89 in - Variable 2.3 mph - N/A   Clear